Retour au catalogue

STARLINK-32756

ActifCommunicationsVLEO
NORAD 62752·PAYLOAD·🇺🇸 United States

Lancé Jan 21, 2025 depuis Cape Canaveral Space Force Station

Loading…

Prochains Passages (prochaines 24 heures)

TLE

FraisSource: CelesTrak SupGP

Époque: Sep 14, 2026, 21:42 UTC

1 62752C 25014T   26257.90465278 -.00014313  00000+0 -51847-3 0  2575
2 62752  43.0016 166.2061 0001455 264.4328 349.5397 15.27583009    15

Suivez STARLINK-32756 en temps réel avec AllMySat

Download on the App Store